Meteo Giornale » Osservazioni meteo Italia » Monte Terminillo

ore: 14:55 - Osservazioni Meteo Monte Terminillo
Lat. 42° 28' N Lon. 12° 59' E Alt. 1874 metri s.l.m.

sereno Europe/Rome

21 °C

Sereno

Temp. 24 Ore

15 °C

21 °C

Nord

16.7 Km/h

Dew point 6 °C

Umidità 37 %

Visibilità  0 Km

Il sole sorge alle ore 05:31

Il sole tramonta alle ore 20:51

Data e Ora Cielo e Fenomeni T °C DP °C Um. % Pres. hPa Vis. km Vento km/h
Oggi h: 14:55 sereno Sereno 21 6 37 1030 0 N 16.7
Oggi h: 13:55 sereno Sereno 21 6 37 1031 0 E 16.7
Oggi h: 12:55 sereno Sereno 20 7 42 1031 0 E 22.2
Oggi h: 11:55 sereno Sereno 20 8 45 1031 0 E 20.3
Oggi h: 10:55 sereno Sereno 19 8 48 1031 0 E 29.6
Oggi h: 09:55 sereno Sereno 20 9 49 1031 0 E 22.2
Oggi h: 07:55 sereno Sereno 17 9 59 1031 0 E 13
Oggi h: 06:55 sereno Sereno 16 9 63 1031 0 E 16.7
Oggi h: 05:55 sereno Sereno 15 10 72 1031 0 E 24
Oggi h: 04:55 sereno Sereno 16 9 63 1031 0 E 24
Oggi h: 02:55 sereno Sereno 16 10 67 1031 0 E 31.5
Oggi h: 01:55 sereno Sereno 16 9 63 1031 0 N 37
Ieri h: 23:55 sereno Sereno 16 8 58 1031 0 E 33.3
Ieri h: 22:55 sereno Sereno 16 9 63 1031 0 E 35.2
Ieri h: 21:55 sereno Sereno 15 12 82 1031 0 E 27.8
Ieri h: 20:55 sereno Sereno 16 13 82 1031 0 E 35.2
Ieri h: 19:55 sereno Sereno 17 13 77 1031 0 E 27.8
Ieri h: 18:55 sereno Sereno 17 13 77 1031 0 E 22.2
Ieri h: 16:55 sereno Sereno 18 11 63 1032 0 E 22.2
Ieri h: 15:55 sereno Sereno 19 12 63 1032 0 E 20.3